This demonstration page uses our WeatherBlox Daily Observations layout. Learn more.

Left ArrowRight Arrow

39.95238, -75.16362

Hourly Observations for June 9, 2022

Temp ( °F °C ) Dew Point ( °F °C ) Humidity (%) Winds ( mph kmh ) Pressure ( in mb ) Visibility ( mi km ) Precip ( " mm )
12:01 am 00:01 Cloudy with Light Rain 73 22.8 69 20.6 87 87 Calm 29.78 1008 5 8 0.03 0.76
12:19 am 00:19 Cloudy with Light Rain 72 22.2 68 20 87 87 E 3 6 29.76 1008 7 11 0.08 2.03
12:48 am 00:48 Cloudy with Nearby Thunderstorms 73 23 70 21 89 89 ESE 6 9 29.75 1007 7 11 0.15 3.81
12:51 am 00:51 Cloudy with Nearby Thunderstorms 73 23 70 21 89 89 ESE 8 13 29.75 1007 7 11 0.15 3.81
12:54 am 00:54 Cloudy with Heavy Rain 73 22.8 70 21.1 90 90 E 6 9 29.75 1007 7 11 0.18 4.57
12:58 am 00:58 Cloudy with Heavy Rain 72 22.2 71 21.7 97 97 N 5 7 29.74 1007 4 6 0.05 1.27
1:08 am 01:08 Cloudy with Light Rain 72 22.2 70 21.1 94 94 ESE 7 11 29.75 1007 5 8 0.30 7.62
1:14 am 01:14 Cloudy with Nearby Thunderstorms 72 22.2 70 21.1 94 94 ESE 5 7 29.74 1007 5 8 0.30 7.62
1:28 am 01:28 Cloudy with Rain 72 22.2 70 21.1 94 94 E 6 9 29.73 1007 5 8 0.35 8.89
1:40 am 01:40 Cloudy with Light Rain 72 22.2 70 21.1 94 94 E 9 15 29.71 1006 8 13 0.36 9.14
1:54 am 01:54 Cloudy with Light Rain 72 22.2 70 21.1 94 94 E 10 17 29.69 1006 8 13 0.36 9.14
2:02 am 02:02 Cloudy with Light Rain 72 22.2 70 21.1 94 94 ESE 8 13 29.69 1005 7 11 0.00 0.00
2:49 am 02:49 Cloudy with Mist and Fog 72 22 70 21 94 94 SSE 8 13 29.68 1005 6 10 0.00 0.00
2:54 am 02:54 Cloudy with Mist and Fog 72 22.2 70 21.1 94 94 SSE 7 11 29.67 1005 6 10 0.00 0.00
3:06 am 03:06 Cloudy 73 22.8 71 21.7 94 94 SSE 8 13 29.66 1004 7 11 0.00 0.00
3:31 am 03:31 Cloudy with Light Rain 74 23.3 71 21.7 91 91 S 13 20 29.64 1004 7 11 0.00 0.00
3:54 am 03:54 Cloudy with Light Rain 75 23.9 71 21.7 88 88 S 13 20 29.62 1003 7 11 0.00 0.00
4:10 am 04:10 Cloudy with Thunderstorms 75 23.9 72 22.2 90 90 S 14 22 29.62 1003 8 13 0.00 0.00
4:16 am 04:16 Cloudy with Thunderstorms 75 23.9 72 22.2 90 90 S 13 20 29.62 1003 5 8 0.00 0.00
4:23 am 04:23 Cloudy with Strong Thunderstorms 75 23.9 72 22.2 90 90 S 21 33 29.63 1003 1 2 0.02 0.51
4:30 am 04:30 Cloudy with Thunderstorms 73 22.8 71 21.7 94 94 SSW 38 61 29.65 1004 1 1 0.34 8.64
4:37 am 04:37 Cloudy with Thunderstorms 71 21.7 67 19.4 87 87 WSW 16 26 29.65 1004 3 5 0.71 18.03
4:43 am 04:43 Cloudy with Thunderstorms 71 21.7 68 20 90 90 WSW 22 35 29.63 1003 3 5 0.88 22.35
4:45 am 04:45 Cloudy with Thunderstorms 71 21.7 68 20 90 90 WSW 20 31 29.62 1003 1 2 0.92 23.37
4:50 am 04:50 Cloudy with Thunderstorms 70 21 66 19 88 88 SW 21 33 29.60 1002 3 5 1.01 25.65
4:54 am 04:54 Cloudy with Thunderstorms 71 21.7 67 19.4 87 87 SW 15 24 29.60 1002 3 5 1.05 26.67
5:02 am 05:02 Cloudy with Light Rain 72 22.2 67 19.4 84 84 SW 13 20 29.60 1002 6 10 0.01 0.25
5:05 am 05:05 Mostly Cloudy with Light Rain 72 22.2 67 19.4 84 84 SSW 13 20 29.59 1002 10 16 0.01 0.25
5:54 am 05:54 Mostly Cloudy 73 22.8 68 20 84 84 SW 9 15 29.62 1003 10 16 0.02 0.51
6:50 am 06:50 Mostly Cloudy 73 23 70 21 89 89 WSW 10 17 29.64 1004 10 16 0.00 0.00
6:54 am 06:54 Mostly Cloudy 74 23.3 70 21.1 88 88 WSW 10 17 29.64 1004 10 16 0.00 0.00
6:56 am 06:56 Mostly Cloudy 74 23.3 70 21.1 88 88 SW 10 17 29.64 1004 10 16 0.00 0.00
7:34 am 07:34 Mostly Cloudy 74 23.3 70 21.1 88 88 SW 17 28 29.64 1004 10 16 0.00 0.00
7:54 am 07:54 Mostly Cloudy 75 23.9 70 21.1 84 84 SW 15 24 29.64 1004 10 16 0.00 0.00
8:54 am 08:54 Partly Cloudy 77 25 68 20 74 74 SW 17 28 29.64 1004 10 16 0.00 0.00
9:54 am 09:54 Mostly Cloudy 79 26.1 66 18.9 65 65 WSW 17 28 29.65 1004 10 16 0.00 0.00
10:54 am 10:54 Mostly Cloudy 81 27.2 62 16.7 53 53 W 16 26 29.66 1004 10 16 0.00 0.00
11:54 am 11:54 Partly Cloudy 84 28.9 58 14.4 41 41 W 23 37 29.66 1005 10 16 0.00 0.00
12:54 pm 12:54 Partly Cloudy 83 28.3 58 14.4 43 43 NW 28 44 29.68 1005 10 16 0.00 0.00
1:54 pm 13:54 Partly Cloudy 82 27.8 55 12.8 40 40 W 21 33 29.69 1005 10 16 0.00 0.00
2:54 pm 14:54 Partly Cloudy 82 27.8 54 12.2 38 38 W 23 37 29.70 1006 10 16 0.00 0.00
3:54 pm 15:54 Mostly Cloudy 82 27.8 54 12.2 38 38 W 24 39 29.70 1006 10 16 0.00 0.00
4:54 pm 16:54 Mostly Cloudy 81 27.2 53 11.7 38 38 W 20 31 29.70 1006 10 16 0.00 0.00
5:54 pm 17:54 Partly Cloudy 81 27.2 52 11.1 37 37 W 22 35 29.71 1006 10 16 0.00 0.00
6:54 pm 18:54 Partly Cloudy 79 26.1 52 11.1 39 39 W 20 31 29.73 1007 10 16 0.00 0.00
7:54 pm 19:54 Partly Cloudy 78 25.6 52 11.1 40 40 WNW 13 20 29.76 1008 10 16 0.00 0.00
8:54 pm 20:54 Partly Cloudy 75 23.9 52 11.1 45 45 WNW 13 20 29.79 1009 10 16 0.00 0.00
9:54 pm 21:54 Partly Cloudy 73 22.8 52 11.1 48 48 WNW 8 13 29.81 1010 10 16 0.00 0.00
10:54 pm 22:54 Partly Cloudy 72 22.2 52 11.1 50 50 NW 12 19 29.83 1010 10 16 0.00 0.00
11:54 pm 23:54 Partly Cloudy 70 21.1 51 10.6 51 51 NW 13 20 29.84 1010 10 16 0.00 0.00

Powered by AerisWeather